Location: Long Island Community Building
(39.9491°N, 99.5338°W)
Time: 09:39:04
(UTC+00:00)

Okean O Rocket - Pass Details

Date: 06 December 2019
Orbit: 624 x 644 km, 98.2° (Epoch: 17 January)

Event Time Altitude Azimuth Distance (km) Brightness Sun altitude
Rises 12:35:03 0° 7° (N) 2,924 4.9 -13.1°
Reaches altitude 10° 12:37:17 10° 3° (N) 2,015 4.0 -12.7°
Maximum altitude 12:41:33 53° 287° (WNW) 775 1.7 -12.0°
Drops below altitude 10° 12:45:48 10° 210° (SSW) 2,012 4.1 -11.2°
Sets 12:48:02 0° 206° (SSW) 2,919 5.0 -10.8°
